Weather History for Racine, WI

Change the Weather History Date:

Monday, October 3, 2011

  Actual Average Record
Temperature  
Mean Temperature 54 °F -  
Max Temperature 63 °F 66 °F 86 °F (1953)
Min Temperature 45 °F 48 °F 32 °F (1952)
Degree Days  
Heating Degree Days 12    
Growing Degree Days 4 (Base 50)    
Moisture  
Dew Point 47 °F    
Average Humidity 78    
Maximum Humidity 97    
Minimum Humidity 62    
Precipitation  
Precipitation 0.00 in - - ()
Sea Level Pressure  
Sea Level Pressure 30.23 in    
Wind  
Wind Speed 6 mph (NNW)    
Max Wind Speed 12 mph    
Max Gust Speed -    
Visibility 10 miles    
Events      
Averages and records for this station are not official NWS values.
T = Trace of Precipitation, MM = Missing Value Source: NWS Daily Summary

Daily Weather History Graph

Daily Weather History Graph

Search for Another Location

Airport:

Trip Planner

Search our weather history database for the weather conditions in past years. The results will help you decide how hot, cold, wet, or windy it might be!

Date:

Astronomy

Oct. 03, 2011 Rise Set
Actual Time 6:50 AM CDT 6:29 PM CDT
Civil Twilight 6:22 AM CDT 6:57 PM CDT
Nautical Twilight 5:49 AM CDT 7:30 PM CDT
Astronomical Twilight 5:16 AM CDT 8:03 PM CDT
Moon 1:55 PM CDT (10/3) 11:25 PM CDT (10/3)
Length of Visible Light 12h 35m
Length of Day
11h 39m
Waxing Crescent, 45% of the Moon is Illuminated
Oct 3
Waxing Crescent
Oct 3
First Quarter
Oct 11
Full
Oct 19
Last Quarter
Oct 26
New

Hourly Weather History & Observations

Time (CDT) Temp. Windchill Dew Point Humidity Pressure Visibility Wind Dir Wind Speed Gust Speed Precip Events Conditions
12:53 AM 50.0 °F - 39.9 °F 68% 30.17 in 10.0 mi WNW 6.9 mph - N/A   Clear
2:53 AM 48.9 °F - 41.0 °F 74% 30.16 in 10.0 mi WNW 4.6 mph - N/A   Clear
3:53 AM 48.9 °F - 41.0 °F 74% 30.17 in 10.0 mi WNW 6.9 mph - N/A   Clear
4:53 AM 46.0 °F - 41.0 °F 83% 30.19 in 10.0 mi Calm Calm - N/A   Clear
6:53 AM 45.0 °F 42.6 °F 41.0 °F 86% 30.22 in 10.0 mi WNW 4.6 mph - N/A   Clear
7:53 AM 48.0 °F - 43.0 °F 83% 30.23 in 10.0 mi WNW 3.5 mph - N/A   Clear
8:53 AM 57.0 °F - 52.0 °F 83% 30.24 in 10.0 mi North 5.8 mph - N/A   Clear
9:53 AM 61.0 °F - 48.0 °F 62% 30.25 in 10.0 mi ENE 8.1 mph - N/A   Clear
10:53 AM 62.1 °F - 50.0 °F 65% 30.25 in 10.0 mi NE 9.2 mph - N/A   Clear
11:53 AM 61.0 °F - 53.1 °F 75% 30.25 in 10.0 mi North 9.2 mph - N/A   Clear
12:53 PM 62.1 °F - 54.0 °F 75% 30.25 in 10.0 mi NNE 9.2 mph - N/A   Clear
1:53 PM 62.1 °F - 48.9 °F 62% 30.23 in 10.0 mi NNE 11.5 mph - N/A   Clear
3:53 PM 61.0 °F - 48.9 °F 64% 30.24 in 10.0 mi NNE 11.5 mph - N/A   Clear
4:53 PM 60.1 °F - 51.1 °F 72% 30.24 in 10.0 mi North 9.2 mph - N/A   Clear
5:53 PM 57.9 °F - 50.0 °F 75% 30.25 in 10.0 mi North 6.9 mph - N/A   Clear
6:53 PM 55.0 °F - 50.0 °F 83% 30.24 in 10.0 mi Calm Calm - N/A   Clear
8:53 PM 50.0 °F - 46.9 °F 89% 30.24 in 10.0 mi NW 3.5 mph - N/A   Clear
9:53 PM 48.0 °F - 46.0 °F 93% 30.25 in 10.0 mi Calm Calm - N/A   Clear
10:53 PM 46.9 °F - 46.0 °F 97% 30.26 in 10.0 mi WNW 3.5 mph - N/A   Clear
11:53 PM 46.0 °F 44.8 °F 45.0 °F 96% 30.26 in 10.0 mi WNW 3.5 mph - N/A   Clear